TimeCDT,TemperatureF,Dew PointF,Humidity,Sea Level PressureIn,VisibilityMPH,Wind Direction,Wind SpeedMPH,Gust SpeedMPH,PrecipitationIn,Events,Conditions,WindDirDegrees,DateUTC
12:56 AM,68.9,61.0,76,29.77,10.0,SSE,13.8,-,N/A,,Clear,150,2013-03-17 05:56:00
1:56 AM,68.0,61.0,78,29.75,10.0,SSE,13.8,-,N/A,,Clear,160,2013-03-17 06:56:00
2:56 AM,66.9,61.0,81,29.74,10.0,SSE,11.5,-,N/A,,Clear,150,2013-03-17 07:56:00
3:56 AM,65.8,61.0,84,29.71,10.0,SSE,11.5,-,N/A,,Clear,150,2013-03-17 08:56:00
4:56 AM,64.9,61.0,87,29.70,10.0,SSE,11.5,-,N/A,,Clear,150,2013-03-17 09:56:00
5:56 AM,63.9,61.0,90,29.71,9.0,SE,9.2,-,N/A,,Clear,140,2013-03-17 10:56:00
6:56 AM,63.9,61.0,90,29.73,8.0,ESE,3.5,-,N/A,,Partly Cloudy,120,2013-03-17 11:56:00
7:09 AM,64.4,60.8,88,29.76,8.0,SE,6.9,-,N/A,,Mostly Cloudy,130,2013-03-17 12:09:00
7:27 AM,64.4,62.6,94,29.77,8.0,ESE,5.8,-,N/A,,Overcast,110,2013-03-17 12:27:00
7:56 AM,63.9,61.0,90,29.74,7.0,SE,6.9,-,N/A,,Overcast,130,2013-03-17 12:56:00
8:28 AM,64.4,62.6,94,29.78,6.0,SE,6.9,-,N/A,,Scattered Clouds,130,2013-03-17 13:28:00
8:56 AM,64.9,61.9,90,29.77,7.0,SE,8.1,-,N/A,,Partly Cloudy,140,2013-03-17 13:56:00
9:56 AM,70.0,61.9,75,29.77,10.0,South,10.4,-,N/A,,Clear,180,2013-03-17 14:56:00
10:56 AM,73.9,61.0,64,29.76,10.0,South,10.4,-,N/A,,Clear,170,2013-03-17 15:56:00
11:56 AM,79.9,59.9,50,29.76,10.0,SSE,6.9,-,N/A,,Clear,160,2013-03-17 16:56:00
12:56 PM,82.9,59.0,44,29.74,10.0,Calm,Calm,-,N/A,,Clear,0,2013-03-17 17:56:00
1:56 PM,86.9,54.9,33,29.70,10.0,West,4.6,-,N/A,,Clear,260,2013-03-17 18:56:00
2:56 PM,90.0,54.9,30,29.67,10.0,Calm,Calm,-,N/A,,Clear,0,2013-03-17 19:56:00
3:56 PM,91.9,52.0,26,29.64,10.0,Calm,Calm,-,N/A,,Clear,0,2013-03-17 20:56:00
4:56 PM,95.0,45.9,18,29.62,10.0,NNW,10.4,16.1,N/A,,Clear,330,2013-03-17 21:56:00
5:56 PM,95.0,41.0,15,29.61,10.0,NNW,8.1,-,N/A,,Clear,340,2013-03-17 22:56:00
6:56 PM,93.9,43.9,18,29.61,10.0,ENE,6.9,-,N/A,,Clear,60,2013-03-17 23:56:00
7:56 PM,88.9,41.9,19,29.61,10.0,NE,6.9,-,N/A,,Unknown,50,2013-03-18 00:56:00
8:56 PM,83.8,43.0,24,29.62,10.0,ESE,5.8,-,N/A,,Unknown,110,2013-03-18 01:56:00
9:56 PM,80.6,42.8,26,29.68,10.0,ESE,4.6,-,N/A,,Clear,110,2013-03-18 02:56:00
10:56 PM,77.9,41.9,28,29.66,10.0,ESE,6.9,-,N/A,,Unknown,110,2013-03-18 03:56:00
11:56 PM,79.0,55.9,45,29.67,10.0,SSE,10.4,-,N/A,,Clear,160,2013-03-18 04:56:00